FENGYUN 1C DEB, 30235

Orbit data source: Space-Track

FENGYUN 1C DEB, 30235 is space debris in SSO originally from a launch on Mon, 10 May 1999 UTC launched from the Taiyaun Space Center, China (TSC). Fengyun 1C debris stems from the Chinese weather satellite Fengyun-1C, which was intentionally destroyed by a Chinese anti-satellite missile in 2007. This event dramatically increased the amount of space debris, with thousands of trackable fragments posing hazards to satellites and human spaceflight. The Fengyun 1C debris cloud has become a focal point in discussions about space sustainability and the need for international regulations to prevent the creation of new debris.

Loading next visibility...
Identifier
30235, 1999-025WU
Orbit
SSO
Country
Flag of CNCN / PRC
Related business
Manufacturer
Unknown
Mission
Spacecraft
Bus & Motor
Unknown
Mass
Unknown
Launch date (UTC)
1999-05-10 (26 years ago)
Launch vehicle
Unknown
Launch site
Taiyaun Space Center, China (TSC)
Object type
Payload
Rocket body
Debris
Shape & HBR
Unknown shape, 0.1 m
Radar Cross Section
Small (<0.1 m²)

Expand to show TLE details & history
Last TLE update: 19 hours ago

TLE from 19 hours ago
0 FENGYUN 1C DEB
1 30235U 99025WU  25291.32476106  .00001095  00000-0  59190-3 0  9998
2 30235  98.7555 311.0900 0154949  35.7133 341.7600 14.08652793961138
Epoch: 2025-10-18T07:47Z
TLE epoch observation values (Epoch: 2025-10-18T07:47:39.355Z)
Latitude
16.69003°
Longitude
164.48612°
Altitude
759.826 km
Speed
7.531 km/s
True Right ascension
20h 33m 49s
True Declination
16° 35' 45"
Sunlit
Object was in daylight at epoch
Visualization orbit readout
Latitude
Unknown
Longitude
Unknown
Altitude
Unknown
Speed
Unknown
Apparent Right ascension
Unknown
Apparent Declination
Unknown
Sunlit
N/A
Visualization observer readout
Local Sidereal Time
21:17:33
Azimuth
Unknown
Elevation
Unknown
Doppler factor
Unknown
Orbital elements
Apogee altitude
973.333 km
Perigee altitude
748.988 km
Semi-major axis
7,239.297 km
Eccentricity
0.01549
Inclination
98.7555°
RAAN
311.09°
Arg. of periapsis
35.7133°
True anomaly
341.19385°
Mean anomaly
341.76°
Eccentric anomaly
341.47798°
Mean motion
3.5237 °/min
Orbital period
102.17 mins
BSTAR
0.0005919
Loading maneuver chart data...
Computing Atmospheric mass density...

Documentation

Showing up to 5 results
|